Regional Weather Roundup
Issued by NWS

Home | Current Version | Previous Version | Text Only | Print | Product List | Glossary Off
Versions: 1 2 3 4 5 6 7 8 9 10 11 12 13 14 15 16 17 18 19 20 21 22 23 24 25 26 27 28 29 30 31 32 33 34 35 36 37 38 39 40 41 42 43 44 45 46 47 48 49 50

000
ASUS43 KMKX 171510
RWRWI

WISCONSIN REGIONAL WEATHER ROUNDUP
NATIONAL WEATHER SERVICE MILWAUKEE/SULLIVAN WI
900 AM CST WED JAN 17 2018

NOTE: "FAIR" INDICATES FEW OR NO CLOUDS BELOW 12,000 FEET WITH NO
SIGNIFICANT WEATHER AND/OR OBSTRUCTIONS TO VISIBILITY.

WIZ001-002-006>008-014>016-023>028-171600-
NORTHWEST WISCONSIN

CITY           SKY/WX    TMP DP  RH WIND       PRES   REMARKS
SUPERIOR ARPT  FAIR       8  -1  66 SW15      30.16F WCI -10
ASHLAND        FAIR      10  -1  61 SW17      30.15F WCI  -8
HAYWARD        FAIR       5  -3  69 S13       30.20F WCI -12
SIREN          FAIR       6  -2  69 SW13      30.24F WCI -10
CUMBERLAND     FAIR       5  -2  72 SW10      30.24F WCI -10
RICE LAKE      FAIR       1  -4  80 CALM      30.28F
CHETEK         FAIR       3  -2  78 S3        30.29F
LADYSMITH      FAIR      -1  -5  82 S6        30.28F WCI -13
EAU CLAIRE     FAIR       2  -2  83 SW5       30.33S WCI  -8
MENOMONIE      FAIR       7  -1  70 S7        30.33S WCI  -5
NEW RICHMOND   FAIR       5  -2  72 SW9       30.28F WCI  -9
OSCEOLA        FAIR       3  -3  75 S6        30.31F WCI  -8
$$

WIZ003>005-009-010-017-018-171600-
NORTH CENTRAL WISCONSIN

CITY           SKY/WX    TMP DP  RH WIND       PRES   REMARKS
MANITOWISH WTR FAIR       6  -4  62 SW13      30.14F WCI -10
ARBOR VITAE    FAIR       7   0  72 SW6       30.16F WCI  -3
WOODRUFF       FAIR       7   0  72 SW6       30.16F WCI  -3
RHINELANDER    FAIR       6  -1  73 W13       30.18F WCI -10
EAGLE RIVER    FAIR       6  -3  67 W12G17    30.15F WCI -10
LAND O LAKES   FAIR      10   0  66 W8        30.13F WCI  -3
PHILLIPS       FAIR       2  -4  75 SW13      30.21F WCI -15
TOMAHAWK       FAIR       5  -2  73 SW5       30.23F WCI  -4
MEDFORD        FAIR       3  -2  79 SW12      30.25F WCI -14
MERRILL        FAIR       6  -1  71 W9        30.27F WCI  -8
$$

WIZ029-030-035-036-043>047-171600-
CENTRAL WISCONSIN

CITY           SKY/WX    TMP DP  RH WIND       PRES   REMARKS
WAUSAU         FAIR       5  -2  72 W10       30.28F WCI -10
MOSINEE        MOSUNNY    1   0  92 SW8       30.31S WCI -12
MARSHFIELD     FAIR      -1  -4  87 SW9       30.30F WCI -16
STEVENS POINT  FAIR       4  -2  77 SW7       30.34S WCI  -9
WAUPACA        FAIR       7   0  71 SW6       30.37F WCI  -3
WAUTOMA        FAIR       5   0  79 MISG        N/A
WISC RAPIDS    FAIR       2  -3  80 SW7       30.37F WCI -11
CAMP DOUGLAS   PTSUNNY    7   0  72 SW7       30.39F WCI  -5
$$

WIZ011>013-019>022-031-037>040-048>050-171600-
NORTHEAST WISCONSIN

CITY           SKY/WX    TMP DP  RH WIND       PRES   REMARKS
ANTIGO         FAIR       4  -1  76 W14       30.23F WCI -13
SHAWANO        FAIR      10   2  70 SW12      30.30F WCI  -4
OCONTO         FAIR       7   1  73 W13       30.31S WCI  -9
STURGEON BAY   FAIR       8   2  76 W16G25    30.29F WCI -10
GREEN BAY      FAIR       7   0  73 SW14      30.34F WCI -10
MANITOWOC      FAIR      10   3  73 W15       30.37S WCI  -7
APPLETON       PTSUNNY    5  -2  72 SW12G20   30.34F WCI -11
CLINTONVILLE   FAIR       7   0  72 SW9       30.33F WCI  -7
OSHKOSH        FAIR       8   1  73 SW9       30.37F WCI  -5
$$

WIZ032>034-041-042-053>061-171600-
SOUTHWEST WISCONSIN

CITY           SKY/WX    TMP DP  RH WIND       PRES   REMARKS
LA CROSSE      FAIR       2  -4  76 S8        30.43F WCI -12
SPARTA         FAIR       2  -1  87 CALM      30.41F
VIROQUA        FAIR       3   0  90 SW8       30.38F WCI -11
BOSCOBEL       FAIR       1  -4  79 SW7       30.50S WCI -12
PRAIRIE DU CHI FAIR       2  -5  73 CALM      30.51R
PLATTEVILLE    PTSUNNY    1  -1  90 SW6       30.49S WCI -10
$$

WIZ056-057-062-063-064-067-068-171600-
SOUTH CENTRAL WISCONSIN

CITY           SKY/WX    TMP DP  RH WIND       PRES   REMARKS
REEDSBURG      FAIR       4  -1  78 W7        30.43F WCI  -8
BARABOO/DELLS  FAIR       6   2  85 SW9       30.41F WCI  -8
LONE ROCK      FAIR      -1  -3  91 S3        30.48F
MINERAL POINT  FAIR       5   3  92 SW7       30.44S WCI  -7
MADISON        PTSUNNY    7   3  84 VRB7      30.45F WCI  -5
MIDDLETON      PTSUNNY    9   4  80 W8        30.45F WCI  -3
WATERTOWN      CLOUDY     6   5  96 W5        30.45S WCI  -3
MONROE         FAIR       5   1  85 SW13      30.46R WCI -12
JANESVILLE     PTSUNNY    3   1  92 SW5       30.50R WCI  -6
$$

WIZ051-052-058>065-066-070>072-171600-
SOUTHEAST WISCONSIN

CITY           SKY/WX    TMP DP  RH WIND       PRES   REMARKS
MILWAUKEE      PTSUNNY   10   4  76 W9        30.46R WCI  -3
WAUKESHA       CLOUDY     7   1  78 SW10      30.45S WCI  -8
MILWAUKEE/TIMM CLOUDY     9   1  72 W10       30.45F WCI  -6
RACINE         PTSUNNY    7   2  80 W8        30.48S WCI  -6
BURLINGTON     FAIR       5   1  82 W8        30.49R WCI  -8
KENOSHA        FAIR       6   1  80 W12       30.48R WCI  -9
FOND DU LAC    FAIR       9   1  70 SW8       30.40F WCI  -3
SHEBOYGAN      FAIR      14   4  64 W17G23    30.38S WCI  -3
WEST BEND      PTSUNNY   10   5  79 W13       30.40S WCI  -5
JUNEAU         FAIR       4   1  86 SW6       30.44S WCI  -7
$$

LSZ147-162-171600-
LAKE SUPERIOR

STATION/POSITION TIME  TEMP    WIND        PRES    WAVE
                       AIR SEA DIR/SP/G            HT/PER
                 (UTC) (F)     (DEG/KT/KT) (MB)    (FT/S)
DEVILS ISLAND    1500   13     230/ 26/ 33 1019.9F
SAXON HARBOR     1500   13     200/ 12/ 21 1020.0
$$

LMZ867-665-643>646-171600-
LAKE MICHIGAN

STATION/POSITION TIME  TEMP    WIND        PRES    WAVE
                       AIR SEA DIR/SP/G            HT/PER
                 (UTC) (F)     (DEG/KT/KT) (MB)    (FT/S)
NORTHPORT PIER   1500    9     240/  8/ 32 1023.7
KEWAUNEE LAKESHO 1442   10     250/ 11/ 16 1026.4S
SHEBOYGAN LAKESH 1500   15     260/  8/ 11 1030.6F
PORT WASHINGTON  1440   12     260/  8/ 13 1031.2F
MILWAUKEE LAKESH 1450   11     250/ 10/ 13   N/A
KENOSHA   LAKESH 1500    9     260/ 11/ 16 1032.2
$$

TC  - TEMPERATURE IN CELSIUS
VSB - VISIBILITY IN STATUTE MILES
WCI - WIND CHILL INDEX
HX  - HEAT INDEX





USA.gov is the U.S. government's official web portal to all federal, state and local government web resources and services.